QPF
0.02 0.02 0.06 0.09 0.10 0.10 0.10 0.11 0.10 0.09 0.11 0.13 0.11 0.07 0.05 0.03 0.01 0.02 0.03 0.04 0.03 0.04 0.04 0.04 0.05 0.04 0.02 0.02 0.01 0.02 0.02 0.02 0.03 0.03 0.02 0.05 0.05 0.05 0.05 0.05 0.05 0.05 0.05
0.01 0.03 0.07 0.09 0.09 0.08 0.08 0.12 0.12 0.11 0.11 0.10 0.08 0.05 0.04 0.02 0.02 0.02 0.03 0.03 0.03 0.04 0.04 0.04 0.04 0.04 0.03 0.03 0.03 0.02 0.02 0.02 0.02 0.03 0.03 0.03 0.04 0.05 0.07 0.07 0.07 0.07 0.07
0.03 0.04 0.07 0.08 0.08 0.08 0.07 0.09 0.11 0.11 0.11 0.09 0.09 0.07 0.06 0.03 0.02 0.03 0.05 0.04 0.03 0.04 0.03 0.04 0.05 0.03 0.02 0.02 0.02 0.03 0.02 0.01 0.01 0.01 0.02 0.02 0.02 0.04 0.05 0.05 0.05 0.07 0.07
0.04 0.04 0.06 0.08 0.08 0.08 0.07 0.08 0.09 0.10 0.10 0.09 0.09 0.08 0.07 0.05 0.05 0.05 0.05 0.04 0.03 0.04 0.04 0.05 0.05 0.03 0.03 0.03 0.03 0.03 0.03 0.01 0.02 0.01 0.01 0.02 0.03 0.03 0.04 0.04 0.06 0.07 0.08
0.05 0.03 0.05 0.08 0.09 0.09 0.09 0.07 0.07 0.10 0.14 0.13 0.10 0.08 0.06 0.06 0.07 0.06 0.04 0.03 0.03 0.03 0.03 0.04 0.04 0.04 0.04 0.04 0.04 0.03 0.03 0.02 0.02 0.01 0.01 0.02 0.04 0.04 0.05 0.05 0.05 0.05 0.07
0.06 0.06 0.07 0.11 0.11 0.11 0.11 0.10 0.08 0.10 0.14 0.15 0.11 0.08 0.07 0.06 0.06 0.05 0.04 0.03 0.03 0.03 0.03 0.04 0.04 0.03 0.05 0.04 0.03 0.02 0.02 0.01 0.01 0.01 0.01 0.02 0.04 0.05 0.05 0.04 0.04 0.05 0.06
0.05 0.05 0.06 0.07 0.09 0.12 0.13 0.10 0.09 0.10 0.11 0.10 0.10 0.07 0.06 0.05 0.05 0.06 0.05 0.04 0.03 0.04 0.04 0.05 0.06 0.03 0.04 0.04 0.03 0.02 0.01 0.01 0.00 0.01 0.02 0.04 0.06 0.06 0.06 0.06 0.07 0.08 0.08
0.03 0.04 0.05 0.08 0.09 0.12 0.13 0.11 0.09 0.10 0.09 0.07 0.07 0.05 0.06 0.06 0.05 0.06 0.05 0.05 0.06 0.07 0.06 0.05 0.03 0.02 0.03 0.05 0.04 0.02 0.01 0.00 0.00 0.01 0.02 0.06 0.10 0.08 0.06 0.05 0.06 0.08 0.07
0.03 0.04 0.06 0.08 0.08 0.10 0.11 0.10 0.10 0.12 0.10 0.08 0.07 0.05 0.05 0.05 0.05 0.05 0.06 0.06 0.09 0.08 0.04 0.03 0.02 0.02 0.03 0.03 0.02 0.01 0.01 0.01 0.00 0.01 0.01 0.05 0.09 0.08 0.08 0.07 0.06 0.07 0.07
0.05 0.05 0.06 0.07 0.06 0.08 0.08 0.07 0.08 0.10 0.10 0.08 0.06 0.04 0.02 0.03 0.03 0.03 0.04 0.07 0.08 0.05 0.04 0.03 0.03 0.02 0.02 0.03 0.03 0.02 0.01 0.01 0.01 0.01 0.02 0.05 0.10 0.09 0.10 0.11 0.09 0.08 0.07
0.05 0.05 0.05 0.05 0.05 0.07 0.06 0.04 0.05 0.06 0.06 0.06 0.04 0.03 0.02 0.02 0.02 0.02 0.03 0.05 0.05 0.05 0.04 0.03 0.03 0.03 0.03 0.03 0.03 0.01 0.00 0.01 0.01 0.02 0.04 0.07 0.10 0.10 0.09 0.09 0.09 0.08 0.05
0.05 0.04 0.03 0.03 0.04 0.05 0.05 0.04 0.03 0.03 0.03 0.03 0.03 0.03 0.02 0.03 0.03 0.02 0.03 0.03 0.03 0.03 0.02 0.02 0.02 0.02 0.02 0.02 0.01 0.00 0.01 0.01 0.02 0.03 0.05 0.07 0.07 0.09 0.09 0.07 0.06 0.07 0.06
0.04 0.04 0.06 0.05 0.04 0.05 0.06 0.05 0.04 0.03 0.02 0.03 0.02 0.02 0.02 0.02 0.01 0.02 0.02 0.03 0.02 0.02 0.01 0.01 0.01 0.01 0.01 0.01 0.01 0.01 0.01 0.01 0.02 0.03 0.07 0.09 0.10 0.11 0.08 0.06 0.05 0.06 0.05
0.04 0.04 0.04 0.05 0.04 0.03 0.03 0.03 0.02 0.02 0.02 0.02 0.01 0.01 0.02 0.02 0.02 0.02 0.02 0.03 0.03 0.02 0.02 0.02 0.01 0.01 0.01 0.01 0.01 0.01 0.01 0.01 0.02 0.03 0.06 0.08 0.09 0.08 0.06 0.05 0.05 0.05 0.03
0.04 0.04 0.03 0.03 0.02 0.01 0.02 0.02 0.01 0.01 0.01 0.01 0.01 0.01 0.01 0.01 0.02 0.02 0.03 0.04 0.03 0.02 0.02 0.01 0.01 0.01 0.01 0.02 0.01 0.01 0.01 0.01 0.01 0.01 0.02 0.04 0.06 0.06 0.06 0.09 0.08 0.07 0.05
0.05 0.05 0.03 0.02 0.01 0.00 0.01 0.01 0.01 0.01 0.01 0.01 0.00 0.00 0.01 0.01 0.02 0.02 0.03 0.04 0.04 0.04 0.03 0.02 0.02 0.01 0.01 0.02 0.02 0.01 0.01 0.01 0.01 0.01 0.01 0.01 0.02 0.02 0.06 0.13 0.09 0.06 0.06
0.04 0.05 0.04 0.02 0.01 0.00 0.00 0.00 0.00 0.01 0.01 0.01 0.01 0.00 0.00 0.01 0.01 0.01 0.01 0.02 0.03 0.03 0.02 0.01 0.01 0.01 0.02 0.03 0.03 0.02 0.01 0.00 0.00 0.00 0.01 0.01 0.00 0.01 0.02 0.03 0.03 0.04 0.06
0.03 0.04 0.03 0.02 0.01 0.00 0.00 0.00 0.00 0.01 0.01 0.01 0.01 0.01 0.01 0.01 0.01 0.01 0.02 0.01 0.01 0.01 0.01 0.02 0.02 0.02 0.03 0.03 0.02 0.02 0.01 0.01 0.00 0.01 0.01 0.01 0.01 0.01 0.01 0.02 0.02 0.03 0.06
0.02 0.03 0.02 0.02 0.01 0.00 0.00 0.01 0.01 0.01 0.02 0.02 0.01 0.02 0.02 0.02 0.01 0.02 0.02 0.01 0.00 0.00 0.01 0.01 0.01 0.02 0.02 0.02 0.01 0.01 0.01 0.01 0.01 0.00 0.00 0.01 0.01 0.01 0.01 0.01 0.02 0.03 0.07
0.03 0.03 0.02 0.02 0.01 0.01 0.01 0.01 0.01 0.01 0.01 0.02 0.01 0.02 0.03 0.01 0.01 0.01 0.02 0.01 0.01 0.01 0.01 0.01 0.01 0.01 0.01 0.01 0.01 0.00 0.00 0.00 0.00 0.00 0.00 0.01 0.01 0.01 0.00 0.01 0.02 0.02 0.03
0.06 0.07 0.04 0.03 0.03 0.03 0.03 0.02 0.03 0.02 0.02 0.02 0.02 0.02 0.02 0.01 0.01 0.01 0.01 0.01 0.01 0.01 0.01 0.01 0.01 0.01 0.01 0.01 0.01 0.01 0.01 0.00 0.00 0.01 0.01 0.01 0.00 0.00 0.01 0.01 0.01 0.02 0.02
0.09 0.11 0.10 0.06 0.04 0.03 0.02 0.02 0.02 0.02 0.01 0.02 0.02 0.02 0.02 0.01 0.01 0.01 0.01 0.01 0.01 0.01 0.02 0.01 0.01 0.01 0.01 0.00 0.01 0.02 0.01 0.01 0.01 0.01 0.01 0.01 0.01 0.01 0.01 0.01 0.01 0.01 0.02
0.11 0.13 0.12 0.09 0.06 0.05 0.03 0.01 0.01 0.01 0.01 0.01 0.01 0.01 0.02 0.01 0.01 0.02 0.02 0.01 0.01 0.01 0.03 0.02 0.01 0.01 0.01 0.01 0.01 0.01 0.02 0.01 0.01 0.01 0.01 0.01 0.01 0.01 0.01 0.01 0.01 0.01 0.01
0.05 0.09 0.11 0.11 0.09 0.07 0.04 0.03 0.02 0.02 0.02 0.01 0.01 0.00 0.01 0.01 0.01 0.02 0.03 0.02 0.01 0.01 0.01 0.01 0.01 0.01 0.01 0.01 0.01 0.01 0.01 0.01 0.02 0.02 0.01 0.01 0.01 0.01 0.00 0.00 0.00 0.00 0.01
0.02 0.03 0.06 0.09 0.10 0.08 0.06 0.04 0.03 0.02 0.02 0.01 0.01 0.01 0.01 0.01 0.01 0.01 0.02 0.02 0.02 0.02 0.02 0.01 0.00 0.00 0.00 0.01 0.01 0.01 0.02 0.02 0.03 0.03 0.02 0.02 0.02 0.01 0.01 0.01 0.00 0.01 0.01
0.02 0.02 0.03 0.04 0.06 0.07 0.05 0.04 0.03 0.03 0.02 0.02 0.02 0.01 0.01 0.01 0.01 0.01 0.01 0.02 0.03 0.03 0.02 0.01 0.01 0.01 0.00 0.01 0.01 0.02 0.02 0.02 0.04 0.05 0.04 0.02 0.03 0.03 0.01 0.01 0.01 0.01 0.01
MSLP
1012.62 1012.29 1012.06 1011.98 1012.03 1012.21 1012.46 1012.73 1012.97 1013.17 1013.32 1013.44 1013.56 1013.71 1013.89 1014.09 1014.28 1014.43 1014.50 1014.49 1014.39 1014.22 1014.01 1013.79 1013.59 1013.44 1013.32 1013.25 1013.21 1013.21 1013.23 1013.28 1013.37 1013.50 1013.64 1013.81 1013.96 1014.09 1014.18 1014.23 1014.26 1014.26 1014.27
1012.72 1012.43 1012.23 1012.18 1012.26 1012.46 1012.71 1012.97 1013.19 1013.35 1013.48 1013.59 1013.71 1013.87 1014.08 1014.31 1014.53 1014.70 1014.79 1014.78 1014.67 1014.50 1014.29 1014.09 1013.92 1013.78 1013.69 1013.64 1013.60 1013.57 1013.56 1013.58 1013.62 1013.71 1013.84 1014.00 1014.16 1014.31 1014.43 1014.51 1014.55 1014.56 1014.57
1012.79 1012.53 1012.38 1012.37 1012.50 1012.73 1013.00 1013.25 1013.46 1013.61 1013.71 1013.80 1013.91 1014.07 1014.29 1014.53 1014.76 1014.94 1015.04 1015.03 1014.93 1014.77 1014.58 1014.41 1014.26 1014.16 1014.10 1014.05 1014.00 1013.95 1013.90 1013.86 1013.86 1013.90 1014.00 1014.15 1014.32 1014.49 1014.64 1014.75 1014.81 1014.84 1014.86
1012.86 1012.63 1012.53 1012.59 1012.77 1013.05 1013.35 1013.62 1013.82 1013.94 1014.02 1014.08 1014.18 1014.32 1014.53 1014.76 1015.00 1015.18 1015.27 1015.28 1015.20 1015.06 1014.91 1014.77 1014.67 1014.60 1014.55 1014.51 1014.44 1014.36 1014.25 1014.16 1014.10 1014.10 1014.17 1014.30 1014.47 1014.66 1014.84 1014.97 1015.06 1015.12 1015.15
1012.97 1012.79 1012.75 1012.87 1013.12 1013.44 1013.78 1014.06 1014.26 1014.36 1014.41 1014.44 1014.51 1014.63 1014.81 1015.03 1015.25 1015.43 1015.54 1015.56 1015.50 1015.41 1015.30 1015.20 1015.14 1015.10 1015.06 1015.01 1014.92 1014.79 1014.64 1014.49 1014.38 1014.34 1014.37 1014.49 1014.66 1014.86 1015.05 1015.21 1015.33 1015.41 1015.46
1013.16 1013.03 1013.04 1013.23 1013.54 1013.92 1014.29 1014.58 1014.77 1014.86 1014.87 1014.87 1014.90 1014.98 1015.14 1015.34 1015.55 1015.72 1015.84 1015.87 1015.85 1015.79 1015.73 1015.67 1015.64 1015.62 1015.60 1015.53 1015.42 1015.25 1015.05 1014.86 1014.70 1014.63 1014.64 1014.74 1014.91 1015.11 1015.31 1015.49 1015.62 1015.71 1015.78
1013.46 1013.37 1013.44 1013.69 1014.06 1014.47 1014.86 1015.15 1015.32 1015.38 1015.37 1015.33 1015.32 1015.37 1015.50 1015.67 1015.86 1016.03 1016.15 1016.21 1016.22 1016.19 1016.16 1016.14 1016.13 1016.13 1016.09 1016.01 1015.87 1015.68 1015.45 1015.23 1015.06 1014.96 1014.97 1015.07 1015.23 1015.43 1015.63 1015.80 1015.94 1016.04 1016.11
1013.88 1013.83 1013.95 1014.24 1014.64 1015.08 1015.46 1015.75 1015.90 1015.92 1015.87 1015.79 1015.75 1015.77 1015.86 1016.01 1016.18 1016.34 1016.45 1016.52 1016.54 1016.54 1016.54 1016.54 1016.54 1016.53 1016.49 1016.40 1016.24 1016.03 1015.80 1015.58 1015.41 1015.32 1015.34 1015.44 1015.61 1015.80 1015.99 1016.15 1016.27 1016.36 1016.43
1014.41 1014.39 1014.56 1014.88 1015.29 1015.72 1016.09 1016.34 1016.45 1016.44 1016.35 1016.24 1016.16 1016.14 1016.20 1016.31 1016.46 1016.59 1016.70 1016.76 1016.79 1016.79 1016.79 1016.80 1016.80 1016.78 1016.73 1016.63 1016.46 1016.26 1016.04 1015.85 1015.71 1015.66 1015.71 1015.83 1016.01 1016.20 1016.38 1016.52 1016.61 1016.67 1016.72
1015.03 1015.05 1015.25 1015.58 1015.98 1016.38 1016.70 1016.90 1016.96 1016.90 1016.78 1016.63 1016.52 1016.47 1016.50 1016.57 1016.68 1016.78 1016.85 1016.90 1016.91 1016.91 1016.90 1016.90 1016.89 1016.86 1016.80 1016.69 1016.54 1016.36 1016.18 1016.03 1015.95 1015.96 1016.05 1016.21 1016.41 1016.60 1016.76 1016.88 1016.94 1016.97 1016.99
1015.72 1015.79 1016.00 1016.32 1016.68 1017.03 1017.28 1017.42 1017.42 1017.31 1017.15 1016.97 1016.83 1016.75 1016.74 1016.77 1016.83 1016.88 1016.92 1016.93 1016.92 1016.90 1016.88 1016.86 1016.84 1016.80 1016.74 1016.63 1016.50 1016.35 1016.22 1016.14 1016.13 1016.20 1016.35 1016.56 1016.78 1016.98 1017.13 1017.22 1017.26 1017.26 1017.25
1016.47 1016.57 1016.78 1017.08 1017.39 1017.66 1017.83 1017.89 1017.82 1017.67 1017.47 1017.27 1017.10 1016.99 1016.93 1016.92 1016.92 1016.93 1016.92 1016.89 1016.85 1016.81 1016.77 1016.74 1016.71 1016.67 1016.61 1016.52 1016.41 1016.30 1016.22 1016.20 1016.26 1016.40 1016.61 1016.86 1017.10 1017.31 1017.46 1017.55 1017.57 1017.55 1017.52
1017.24 1017.37 1017.58 1017.83 1018.08 1018.26 1018.34 1018.31 1018.18 1017.98 1017.75 1017.52 1017.33 1017.19 1017.10 1017.04 1016.99 1016.94 1016.89 1016.82 1016.76 1016.70 1016.66 1016.62 1016.59 1016.56 1016.50 1016.43 1016.35 1016.28 1016.25 1016.29 1016.40 1016.59 1016.84 1017.11 1017.38 1017.60 1017.76 1017.84 1017.86 1017.83 1017.80
1018.00 1018.16 1018.35 1018.55 1018.71 1018.80 1018.79 1018.68 1018.49 1018.25 1017.99 1017.74 1017.54 1017.38 1017.25 1017.15 1017.06 1016.97 1016.88 1016.79 1016.71 1016.65 1016.61 1016.58 1016.57 1016.55 1016.51 1016.46 1016.40 1016.36 1016.36 1016.43 1016.57 1016.79 1017.06 1017.34 1017.62 1017.84 1018.00 1018.09 1018.11 1018.10 1018.07
1018.73 1018.89 1019.06 1019.20 1019.28 1019.28 1019.18 1019.00 1018.76 1018.48 1018.21 1017.95 1017.74 1017.56 1017.41 1017.28 1017.16 1017.04 1016.92 1016.82 1016.74 1016.70 1016.67 1016.68 1016.68 1016.68 1016.66 1016.63 1016.59 1016.57 1016.58 1016.66 1016.80 1017.01 1017.27 1017.54 1017.80 1018.02 1018.18 1018.28 1018.32 1018.33 1018.33
1019.38 1019.53 1019.66 1019.74 1019.74 1019.66 1019.49 1019.25 1018.98 1018.68 1018.40 1018.15 1017.93 1017.75 1017.59 1017.44 1017.30 1017.16 1017.04 1016.95 1016.89 1016.86 1016.87 1016.90 1016.94 1016.97 1016.98 1016.96 1016.93 1016.91 1016.91 1016.97 1017.09 1017.27 1017.49 1017.72 1017.95 1018.14 1018.29 1018.39 1018.45 1018.49 1018.52
1019.91 1020.03 1020.12 1020.14 1020.08 1019.93 1019.71 1019.44 1019.15 1018.86 1018.58 1018.34 1018.13 1017.95 1017.78 1017.62 1017.48 1017.34 1017.23 1017.15 1017.11 1017.12 1017.17 1017.23 1017.30 1017.36 1017.38 1017.38 1017.35 1017.32 1017.31 1017.33 1017.41 1017.54 1017.70 1017.88 1018.06 1018.21 1018.34 1018.44 1018.51 1018.58 1018.64
1020.31 1020.39 1020.43 1020.40 1020.28 1020.10 1019.86 1019.58 1019.29 1019.01 1018.75 1018.53 1018.33 1018.16 1018.00 1017.84 1017.70 1017.57 1017.47 1017.41 1017.40 1017.44 1017.51 1017.61 1017.70 1017.78 1017.81 1017.81 1017.78 1017.74 1017.71 1017.70 1017.73 1017.80 1017.90 1018.02 1018.14 1018.26 1018.36 1018.44 1018.53 1018.61 1018.70
1020.58 1020.61 1020.60 1020.52 1020.37 1020.17 1019.93 1019.66 1019.40 1019.15 1018.93 1018.73 1018.56 1018.40 1018.24 1018.09 1017.95 1017.83 1017.75 1017.70 1017.71 1017.77 1017.86 1017.97 1018.08 1018.16 1018.20 1018.20 1018.17 1018.12 1018.08 1018.05 1018.04 1018.07 1018.12 1018.18 1018.26 1018.33 1018.40 1018.46 1018.54 1018.63 1018.74
1020.73 1020.70 1020.64 1020.53 1020.37 1020.17 1019.95 1019.73 1019.51 1019.31 1019.13 1018.97 1018.82 1018.67 1018.53 1018.38 1018.25 1018.14 1018.06 1018.03 1018.04 1018.10 1018.19 1018.30 1018.40 1018.47 1018.51 1018.51 1018.48 1018.43 1018.38 1018.35 1018.33 1018.33 1018.36 1018.39 1018.43 1018.48 1018.52 1018.58 1018.64 1018.73 1018.83
1020.80 1020.72 1020.61 1020.48 1020.32 1020.14 1019.97 1019.80 1019.64 1019.50 1019.38 1019.26 1019.14 1019.01 1018.87 1018.74 1018.61 1018.50 1018.42 1018.39 1018.40 1018.44 1018.51 1018.60 1018.67 1018.72 1018.75 1018.74 1018.71 1018.68 1018.64 1018.62 1018.61 1018.63 1018.65 1018.69 1018.72 1018.76 1018.80 1018.84 1018.90 1018.97 1019.06
1020.84 1020.71 1020.56 1020.40 1020.26 1020.12 1020.00 1019.90 1019.82 1019.75 1019.68 1019.60 1019.51 1019.41 1019.29 1019.16 1019.03 1018.93 1018.85 1018.81 1018.80 1018.82 1018.86 1018.90 1018.94 1018.96 1018.96 1018.95 1018.92 1018.90 1018.89 1018.90 1018.93 1018.98 1019.03 1019.10 1019.16 1019.21 1019.26 1019.31 1019.36 1019.42 1019.48
1020.90 1020.71 1020.53 1020.36 1020.23 1020.14 1020.09 1020.06 1020.06 1020.06 1020.05 1020.02 1019.96 1019.87 1019.77 1019.65 1019.53 1019.43 1019.35 1019.30 1019.27 1019.27 1019.27 1019.27 1019.27 1019.25 1019.22 1019.19 1019.17 1019.16 1019.18 1019.23 1019.30 1019.40 1019.51 1019.62 1019.73 1019.83 1019.91 1019.98 1020.04 1020.08 1020.12
1021.00 1020.76 1020.55 1020.39 1020.28 1020.24 1020.24 1020.29 1020.36 1020.42 1020.47 1020.48 1020.45 1020.39 1020.30 1020.20 1020.10 1020.01 1019.93 1019.88 1019.85 1019.82 1019.79 1019.76 1019.71 1019.66 1019.60 1019.55 1019.52 1019.52 1019.56 1019.64 1019.75 1019.90 1020.07 1020.25 1020.41 1020.57 1020.70 1020.80 1020.87 1020.92 1020.94
1021.15 1020.89 1020.66 1020.50 1020.41 1020.41 1020.47 1020.58 1020.71 1020.83 1020.92 1020.96 1020.96 1020.92 1020.85 1020.77 1020.69 1020.62 1020.57 1020.53 1020.50 1020.47 1020.43 1020.37 1020.30 1020.21 1020.13 1020.06 1020.01 1020.00 1020.05 1020.14 1020.29 1020.47 1020.69 1020.91 1021.14 1021.35 1021.53 1021.67 1021.78 1021.84 1021.85
1021.35 1021.07 1020.84 1020.69 1020.62 1020.66 1020.77 1020.92 1021.09 1021.25 1021.37 1021.44 1021.46 1021.44 1021.39 1021.33 1021.28 1021.24 1021.23 1021.22 1021.22 1021.20 1021.17 1021.11 1021.03 1020.92 1020.82 1020.72 1020.65 1020.63 1020.66 1020.74 1020.89 1021.08 1021.32 1021.58 1021.84 1022.09 1022.32 1022.51 1022.65 1022.72 1022.74
Thickness
5777 5777 5773 5773 5772 5772 5772 5772 5771 5771 5771 5770 5770 5769 5769 5768 5767 5767 5767 5767 5766 5766 5766 5766 5766 5765 5765 5765 5765 5765 5765 5765 5764 5764 5764 5764 5764 5763 5763 5763 5764 5764 5762
5779 5776 5772 5772 5772 5771 5771 5771 5770 5770 5770 5769 5769 5768 5767 5767 5766 5766 5765 5765 5765 5765 5764 5764 5764 5764 5763 5763 5763 5763 5762 5762 5762 5762 5763 5763 5762 5761 5761 5761 5761 5761 5760
5778 5776 5773 5771 5771 5770 5770 5769 5769 5768 5768 5767 5767 5766 5766 5765 5765 5764 5763 5763 5763 5763 5762 5762 5762 5762 5762 5761 5761 5760 5760 5760 5760 5760 5762 5763 5761 5759 5758 5758 5757 5757 5757
5776 5775 5773 5770 5769 5769 5768 5768 5767 5766 5765 5765 5764 5764 5764 5763 5763 5762 5762 5761 5761 5761 5760 5760 5760 5760 5759 5759 5758 5758 5757 5757 5757 5759 5762 5761 5759 5756 5755 5755 5754 5755 5754
5775 5773 5770 5768 5767 5767 5766 5766 5765 5764 5763 5763 5762 5762 5762 5761 5761 5761 5760 5759 5759 5759 5758 5758 5758 5757 5757 5756 5755 5755 5755 5755 5756 5758 5758 5757 5755 5753 5752 5752 5752 5752 5752
5773 5771 5768 5766 5765 5764 5764 5763 5763 5762 5761 5761 5760 5760 5760 5759 5759 5759 5758 5757 5757 5756 5756 5755 5755 5755 5754 5753 5753 5752 5752 5753 5755 5755 5755 5754 5752 5750 5749 5749 5749 5749 5749
5771 5769 5766 5763 5763 5762 5762 5761 5761 5760 5759 5758 5758 5758 5757 5757 5757 5757 5756 5755 5755 5754 5753 5753 5753 5752 5751 5751 5750 5750 5750 5751 5753 5753 5752 5750 5748 5747 5746 5746 5746 5746 5746
5768 5767 5764 5761 5760 5760 5759 5759 5758 5758 5757 5756 5756 5755 5755 5755 5755 5754 5754 5753 5752 5752 5751 5750 5750 5749 5748 5748 5747 5747 5747 5748 5750 5751 5749 5747 5744 5744 5743 5743 5743 5743 5743
5766 5765 5764 5762 5759 5758 5757 5756 5756 5755 5755 5754 5754 5753 5753 5753 5752 5752 5751 5751 5750 5749 5749 5748 5747 5746 5745 5744 5744 5743 5744 5745 5748 5747 5747 5743 5741 5740 5740 5739 5739 5739 5739
5764 5763 5762 5760 5759 5758 5756 5754 5753 5753 5752 5751 5751 5750 5750 5750 5750 5750 5749 5748 5748 5747 5746 5745 5744 5743 5742 5741 5741 5741 5741 5743 5744 5744 5742 5739 5737 5737 5736 5736 5735 5735 5735
5760 5760 5760 5759 5757 5756 5755 5753 5752 5751 5750 5750 5749 5748 5749 5751 5751 5749 5746 5745 5744 5744 5743 5742 5741 5740 5740 5739 5738 5738 5740 5742 5741 5739 5736 5734 5734 5733 5733 5732 5732 5732 5732
5755 5757 5758 5757 5756 5755 5753 5752 5752 5751 5749 5750 5749 5748 5749 5748 5747 5745 5742 5741 5741 5740 5739 5738 5738 5739 5740 5740 5738 5738 5739 5739 5738 5735 5731 5729 5730 5730 5729 5729 5728 5728 5728
5754 5753 5754 5754 5753 5753 5751 5750 5750 5749 5747 5747 5747 5745 5745 5745 5744 5744 5743 5741 5740 5739 5739 5737 5739 5739 5739 5737 5737 5736 5735 5735 5733 5731 5727 5725 5725 5726 5725 5725 5724 5724 5724
5751 5751 5751 5751 5751 5750 5749 5748 5747 5747 5746 5746 5745 5743 5743 5742 5742 5742 5741 5740 5739 5738 5737 5737 5736 5736 5735 5735 5734 5733 5731 5731 5729 5726 5722 5721 5721 5721 5722 5721 5721 5720 5720
5747 5748 5749 5749 5749 5748 5746 5745 5745 5744 5744 5743 5741 5741 5741 5740 5741 5740 5739 5737 5737 5736 5735 5734 5734 5732 5731 5730 5729 5728 5727 5726 5725 5723 5720 5717 5717 5717 5717 5717 5717 5716 5716
5746 5746 5746 5745 5745 5745 5744 5743 5743 5741 5739 5739 5739 5738 5738 5737 5738 5736 5737 5734 5734 5733 5732 5731 5730 5728 5727 5726 5725 5723 5722 5721 5720 5719 5717 5715 5712 5712 5712 5712 5712 5712 5712
5745 5746 5744 5743 5742 5742 5741 5740 5739 5738 5738 5736 5735 5735 5735 5734 5734 5734 5734 5733 5731 5730 5729 5728 5726 5724 5722 5721 5720 5719 5717 5716 5716 5715 5713 5712 5711 5708 5707 5707 5707 5708 5708
5744 5743 5741 5740 5739 5738 5737 5736 5735 5735 5734 5733 5732 5732 5732 5731 5731 5730 5730 5729 5728 5727 5725 5723 5722 5720 5718 5717 5716 5715 5714 5712 5712 5711 5710 5709 5707 5706 5704 5702 5702 5703 5703
5742 5740 5738 5737 5736 5734 5733 5732 5731 5731 5730 5730 5729 5728 5728 5728 5728 5727 5726 5725 5724 5723 5722 5720 5718 5717 5714 5712 5711 5710 5710 5708 5707 5707 5707 5705 5704 5702 5701 5698 5697 5697 5697
5739 5738 5736 5734 5733 5731 5729 5729 5728 5727 5727 5726 5725 5724 5724 5724 5724 5723 5722 5722 5720 5719 5717 5716 5713 5712 5710 5709 5709 5706 5705 5705 5704 5703 5702 5701 5700 5698 5697 5696 5695 5693 5692
5735 5734 5733 5731 5729 5727 5725 5724 5723 5723 5723 5723 5722 5721 5720 5720 5719 5719 5719 5719 5716 5715 5714 5713 5710 5707 5706 5706 5704 5701 5702 5702 5701 5699 5698 5697 5696 5694 5693 5693 5692 5691 5690
5732 5731 5730 5728 5727 5725 5723 5722 5721 5720 5721 5720 5718 5717 5717 5716 5716 5716 5716 5715 5713 5711 5709 5708 5705 5704 5703 5703 5702 5698 5695 5694 5695 5695 5694 5692 5692 5691 5690 5689 5688 5687 5685
5729 5729 5727 5726 5725 5723 5721 5719 5717 5716 5716 5715 5714 5714 5713 5713 5713 5712 5712 5712 5710 5709 5706 5704 5703 5700 5699 5700 5701 5698 5693 5690 5689 5689 5689 5688 5687 5686 5685 5684 5684 5683 5682
5728 5727 5726 5724 5723 5721 5719 5717 5715 5712 5711 5712 5713 5712 5711 5710 5710 5709 5709 5708 5707 5706 5704 5703 5701 5700 5697 5696 5696 5696 5696 5693 5688 5683 5684 5684 5682 5681 5681 5680 5679 5678 5677
5726 5724 5723 5723 5721 5718 5717 5715 5713 5712 5712 5711 5710 5709 5709 5708 5707 5706 5705 5705 5704 5703 5701 5700 5698 5697 5696 5695 5693 5692 5690 5689 5690 5684 5679 5678 5678 5677 5676 5675 5674 5673 5672
5723 5721 5720 5718 5717 5715 5714 5713 5712 5710 5708 5707 5706 5705 5705 5705 5704 5703 5702 5701 5700 5700 5699 5697 5695 5694 5694 5692 5691 5691 5688 5686 5684 5683 5679 5676 5673 5672 5672 5670 5669 5668 5667